Regional Weather Roundup
Issued by NWS

Home | Current Version | Previous Version | Graphics & Text | Print | Product List | Glossary Off
Versions: 1 2 3 4 5 6 7 8 9 10 11 12 13 14 15 16 17 18 19 20 21 22 23 24 25 26 27 28 29 30 31 32 33 34 35 36 37 38 39 40 41 42 43 44 45 46 47 48 49 50

000
ASUS43 KMKX 200300
RWRWI

WISCONSIN REGIONAL WEATHER ROUNDUP
NATIONAL WEATHER SERVICE MILWAUKEE/SULLIVAN WI
900 PM CST SUN FEB 19 2017

NOTE: "FAIR" INDICATES FEW OR NO CLOUDS BELOW 12,000 FEET WITH NO
SIGNIFICANT WEATHER AND/OR OBSTRUCTIONS TO VISIBILITY.

WIZ001-002-006>008-014>016-023>028-200400-
NORTHWEST WISCONSIN

CITY           SKY/WX    TMP DP  RH WIND       PRES   REMARKS
SUPERIOR ARPT  CLOUDY    34  33  95 E13G18    29.98S WCI  25
ASHLAND        CLOUDY    32  30  92 N6        29.99F WCI  26
HAYWARD        MOCLDY    51  30  44 SE10      29.95S
SIREN          PTCLDY    52  31  44 SE10      29.91S
CUMBERLAND     CLOUDY    45  32  61 SE7       29.94R
RICE LAKE      CLOUDY    46  32  59 CALM      29.97R
CHETEK         CLOUDY    47  33  57 SE6       29.95S
LADYSMITH      PTCLDY    47  32  56 E7        29.99F
EAU CLAIRE     NOT AVBL
MENOMONIE      PTCLDY    45  33  63 E6        29.95S
NEW RICHMOND   CLOUDY    46  34  63 SE8       29.91F
OSCEOLA        CLOUDY    50  35  56 SE9G16    29.92F
$$

WIZ003>005-009-010-017-018-200400-
NORTH CENTRAL WISCONSIN

CITY           SKY/WX    TMP DP  RH WIND       PRES   REMARKS
MANITOWISH WTR CLOUDY    34  30  85 SE3       30.02R
ARBOR VITAE    CLOUDY    42  28  58 S5        30.03R
WOODRUFF       CLOUDY    42  28  58 S5        30.03R
RHINELANDER    CLOUDY    45  29  53 SE7       30.05R
EAGLE RIVER    CLEAR     42  27  53 SE5       30.04R
LAND O LAKES   CLOUDY    41  29  62 SE6       30.07R
PHILLIPS       CLOUDY    44  29  56 E5        29.99F
TOMAHAWK       PTCLDY    42  29  59 CALM      30.04R
MEDFORD        PTCLDY    46  31  56 SE6       30.01S
MERRILL        NOT AVBL
$$

WIZ029-030-035-036-043>047-200400-
CENTRAL WISCONSIN

CITY           SKY/WX    TMP DP  RH WIND       PRES   REMARKS
WAUSAU         CLOUDY    43  32  65 SE8       30.04R
MOSINEE        NOT AVBL
MARSHFIELD     CLOUDY    46  31  55 E5        30.02R
STEVENS POINT  PTCLDY    43  33  67 E6        30.05R
WAUPACA        CLOUDY    43  35  71 CALM      30.08R
WAUTOMA        PTCLDY    38  33  82 CALM      30.06R
WISC RAPIDS    CLOUDY    45  34  65 E6        30.04R
CAMP DOUGLAS   NOT AVBL
$$

WIZ011>013-019>022-031-037>040-048>050-200400-
NORTHEAST WISCONSIN

CITY           SKY/WX    TMP DP  RH WIND       PRES   REMARKS
ANTIGO         PTCLDY    38  32  77 SE8       30.07R WCI  33
SHAWANO        CLOUDY    36  32  85 CALM      30.10R
OCONTO         CLOUDY    33  30  88 CALM      30.11S
STURGEON BAY   PTCLDY    38  32  79 E7        30.13R WCI  33
GREEN BAY      PTCLDY    38  32  79 E6        30.10S WCI  33
MANITOWOC      NOT AVBL
APPLETON       PTCLDY    39  28  65 E5        30.08R
CLINTONVILLE   PTCLDY    41  32  70 SE5       30.09R
OSHKOSH        CLOUDY    39  31  72 SE5       30.07R
$$

WIZ032>034-041-042-053>061-200400-
SOUTHWEST WISCONSIN

CITY           SKY/WX    TMP DP  RH WIND       PRES   REMARKS
LA CROSSE      CLOUDY    52  37  56 SE5       29.98R
SPARTA         CLOUDY    41  33  73 CALM      30.01S
VIROQUA        CLOUDY    50  38  62 SE12      30.00R
BOSCOBEL       MOCLDY    46  35  65 CALM      30.01R
PRAIRIE DU CHI CLOUDY    52  34  51 E6        29.99R
PLATTEVILLE    PTCLDY    47  38  69 E10       30.02R
$$

WIZ056-057-062-063-064-067-068-200400-
SOUTH CENTRAL WISCONSIN

CITY           SKY/WX    TMP DP  RH WIND       PRES   REMARKS
REEDSBURG      MOCLDY    44  36  72 CALM      30.03R
BARABOO/DELLS  MOCLDY    51  34  53 CALM      30.03R
LONE ROCK      NOT AVBL
MINERAL POINT  CLOUDY    52  36  54 SE9       30.02R
MADISON        CLOUDY    47  36  65 SE5       30.04R
MIDDLETON      CLOUDY    39  37  90 CALM      30.05R
WATERTOWN      PTCLDY    44  33  66 E8        30.06R
MONROE         CLOUDY    52  37  58 SE9       30.04R
JANESVILLE     CLEAR     45  36  70 SE6       30.05R
$$

WIZ051-052-058>065-066-070>072-200400-
SOUTHEAST WISCONSIN

CITY           SKY/WX    TMP DP  RH WIND       PRES   REMARKS
MILWAUKEE      CLOUDY    40  32  73 E5        30.10R
WAUKESHA       CLEAR     37  28  70 E5        30.10R WCI  34
MILWAUKEE/TIMM CLEAR     39  28  65 CALM      30.11R
RACINE         PTCLDY    39  32  76 SE5       30.11R
KENOSHA        CLOUDY    35  29  78 E5        30.09S WCI  31
FOND DU LAC    MOCLDY    41  29  62 SE8       30.08R
SHEBOYGAN      CLOUDY    35  29  78 CALM      30.11S
WEST BEND      CLOUDY    36  32  87 CALM      30.10R
JUNEAU         PTCLDY    43  32  64 E10       30.07S
$$

LSZ147-162-200400-
LAKE SUPERIOR

STATION/POSITION TIME  TEMP    WIND        PRES    WAVE
                       AIR SEA DIR/SP/G            HT/PER
                 (UTC) (F)     (DEG/KT/KT) (MB)    (FT/S)
DEVILS ISLAND    0200   36      70/ 12/ 13 1017.4F
PORT WING        0240   34      30/ 12/ 15 1015.6S
SAXON HARBOR     0240   32     160/  2/  2 1015.6S
$$

LMZ867-665-643>646-200400-
LAKE MICHIGAN

STATION/POSITION TIME  TEMP    WIND        PRES    WAVE
                       AIR SEA DIR/SP/G            HT/PER
                 (UTC) (F)     (DEG/KT/KT) (MB)    (FT/S)
CHAMBERS ISLAND  0240   38     110/  4/  6 1019.6R
NORTHPORT PIER   0240   37     150/  5/  7 1020.3S
SISTER BAY       0120   38     130/  8/ 11   N/A
ALGOMA LAKESHORE 0155             CALM       N/A
KEWAUNEE LAKESHO 0230   36      CALM  /  1 1019.5R
SHEBOYGAN LAKESH 0200   39      40/  1/  1 1020.0R
PORT WASHINGTON  0240   39      40/  1/  3 1020.7R
MILWAUKEE LAKESH 0230   39      40/  3/  4   N/A
KENOSHA   LAKESH 0200   38        CALM     1019.0
$$

TC  - TEMPERATURE IN CELSIUS
VSB - VISIBILITY IN STATUTE MILES
WCI - WIND CHILL INDEX
HX  - HEAT INDEX





USA.gov is the U.S. government's official web portal to all federal, state and local government web resources and services.